Location: Couloutre
(47.4081°N, 3.2259°E)
Time: 19:21:08
(UTC+00:00)

STARLINK-1055 - Pass Details

Date: 27 February 2020
Orbit: 548 x 551 km, 53.0° (Epoch: 30 March)

Event Time Altitude Azimuth Distance (km) Brightness Sun altitude
Rises 18:46:37 0° 237° (WSW) 2,707 8.1 -14.0°
Reaches altitude 10° 18:48:50 10° 236° (SW) 1,816 7.1 -14.4°
Maximum altitude 18:52:58 81° 151° (SSE) 560 3.5 -15.1°
Enters shadow 18:55:19 25° 65° (ENE) 1,131 4.7 -15.5°
